Showing default

IRIS-F1, 59110

Orbit data source: Space-Track

IRIS-F1, 59110 is a Taiwanese payload satellite in SSO that was launched on Mon, 04 Mar 2024 UTC via an FALCON 9 launch vehicle from the Air Force Western Test Range (AFWTR). Payload-class satellites include a variety of spacecraft equipped with specific instruments for various scientific and technological missions. These include communications satellites like Starlink; space stations such as the ISS; scientific satellites like the Hubble; Earth observation satellites from companies like Planet Labs, Umbra, and HawkEye 360; GPS; miniature CubeSats for education and research; and military/defense satellites.

Loading next visibility...
Identifier
59110, 2024-043N
Orbit
SSO
Country
Flag of TWTW / TWN
Related business
Manufacturer
Satoro
Mission
Operational Amateur Technology
Bus & Motor
CUBESAT 3U, Unknown motor
Mass
4 kg wet, 4 kg dry
Launch date (UTC)
2024-03-04 (2 years ago)
Launch vehicle
FALCON 9
Launch site
Air Force Western Test Range (AFWTR)
Object type
Payload
Rocket body
Debris
Shape & HBR
Box, 0.1 m
Radar Cross Section
0.800 m², Medium (>0.1 m² and < 1m²)

Expand to show TLE details & history
Last TLE update: 18 hours ago

TLE from 18 hours ago
0 IRIS-F1
1 59110U 24043N   25288.83921470  .00236033  00000-0  16588-2 0  9995
2 59110  97.5055  68.5879 0005161 323.2909  36.8001 15.73442219 90468
Epoch: 2025-10-15T20:08Z
TLE epoch observation values (Epoch: 2025-10-15T20:08:28.150Z)
Latitude
0.00005°
Longitude
101.86307°
Altitude
349.447 km
Speed
7.701 km/s
True Right ascension
04h 34m 21s
True Declination
0° 00' 00"
Sunlit
Object was in full shadow at epoch
Visualization orbit readout
Latitude
Unknown
Longitude
Unknown
Altitude
Unknown
Speed
Unknown
Apparent Right ascension
Unknown
Apparent Declination
Unknown
Sunlit
N/A
Visualization observer readout
Local Sidereal Time
08:25:54
Azimuth
Unknown
Elevation
Unknown
Doppler factor
Unknown
Orbital elements
Apogee altitude
349.437 km
Perigee altitude
342.497 km
Semi-major axis
6,724.104 km
Eccentricity
0.00052
Inclination
97.5055°
RAAN
68.5879°
Arg. of periapsis
323.2909°
True anomaly
36.83555°
Mean anomaly
36.8001°
Eccentric anomaly
36.81782°
Mean motion
3.93633 °/min
Orbital period
91.46 mins
BSTAR
0.0016588
Loading maneuver chart data...
Computing Atmospheric mass density...
Loading historical data...
Loading historical data...
Loading historical data...
Loading historical data...
Loading historical data...
Loading historical data...
Loading historical data...

Documentation

Showing up to 5 results
|